Time,TemperatureF,DewpointF,PressureIn,WindDirection,WindDirectionDegrees,WindSpeedMPH,WindSpeedGustMPH,Humidity,HourlyPrecipIn,Conditions,Clouds,dailyrainin,SolarRadiationWatts/m^2,SoftwareType,DateUTC
2013-03-04 00:02:00,47.0,29.0,-100.00,SSW,194,5.0,12.0,50,0.00,,,0.00,0.000000,,2013-03-04 06:02:00,
2013-03-04 00:11:00,47.0,29.0,-100.00,SSW,194,5.0,12.0,50,0.00,,,0.00,0.000000,,2013-03-04 06:11:00,
2013-03-04 00:21:00,47.0,29.0,-100.00,SSW,194,5.0,12.0,50,0.00,,,0.00,0.000000,,2013-03-04 06:21:00,
2013-03-04 00:32:00,46.0,32.0,-100.00,SSW,198,5.0,10.0,58,0.00,,,0.00,0.000000,,2013-03-04 06:32:00,
2013-03-04 00:52:00,46.0,32.0,-100.00,SSW,198,5.0,10.0,58,0.00,,,0.00,0.000000,,2013-03-04 06:52:00,
2013-03-04 01:01:00,46.0,32.0,-100.00,SSW,198,5.0,10.0,58,0.00,,,0.00,0.000000,,2013-03-04 07:01:00,
2013-03-04 01:11:00,46.0,32.0,-100.00,SSW,198,5.0,10.0,58,0.00,,,0.00,0.000000,,2013-03-04 07:11:00,
2013-03-04 01:21:00,46.0,32.0,-100.00,SSW,198,5.0,10.0,58,0.00,,,0.00,0.000000,,2013-03-04 07:21:00,
2013-03-04 01:32:00,45.0,34.0,-100.00,South,191,5.0,8.0,64,0.00,,,0.00,0.000000,,2013-03-04 07:32:00,
2013-03-04 01:52:00,45.0,34.0,-100.00,South,191,5.0,8.0,64,0.00,,,0.00,0.000000,,2013-03-04 07:52:00,
2013-03-04 02:02:00,45.0,34.0,-100.00,South,191,5.0,8.0,64,0.00,,,0.00,0.000000,,2013-03-04 08:02:00,
2013-03-04 02:11:00,45.0,34.0,-100.00,South,191,5.0,8.0,64,0.00,,,0.00,0.000000,,2013-03-04 08:11:00,
2013-03-04 02:22:00,45.0,34.0,-100.00,South,191,5.0,8.0,64,0.00,,,0.00,0.000000,,2013-03-04 08:22:00,
2013-03-04 02:32:00,44.0,35.0,-100.00,South,177,4.0,9.0,70,0.00,,,0.00,0.000000,,2013-03-04 08:32:00,
2013-03-04 02:52:00,44.0,35.0,-100.00,South,177,4.0,9.0,70,0.00,,,0.00,0.000000,,2013-03-04 08:52:00,
2013-03-04 03:02:00,44.0,35.0,-100.00,South,177,4.0,9.0,70,0.00,,,0.00,0.000000,,2013-03-04 09:02:00,
2013-03-04 03:11:00,44.0,35.0,-100.00,South,177,4.0,9.0,70,0.00,,,0.00,0.000000,,2013-03-04 09:11:00,
2013-03-04 03:21:00,44.0,35.0,-100.00,South,177,4.0,9.0,70,0.00,,,0.00,0.000000,,2013-03-04 09:21:00,
2013-03-04 03:32:00,44.0,36.0,-100.00,South,183,7.0,12.0,73,0.00,,,0.00,0.000000,,2013-03-04 09:32:00,
2013-03-04 03:52:00,44.0,36.0,-100.00,South,183,7.0,12.0,73,0.00,,,0.00,0.000000,,2013-03-04 09:52:00,
2013-03-04 04:01:00,44.0,36.0,-100.00,South,183,7.0,12.0,73,0.00,,,0.00,0.000000,,2013-03-04 10:01:00,
2013-03-04 04:11:00,44.0,36.0,-100.00,South,183,7.0,12.0,73,0.00,,,0.00,0.000000,,2013-03-04 10:11:00,
2013-03-04 04:22:00,44.0,36.0,-100.00,South,183,7.0,12.0,73,0.00,,,0.00,0.000000,,2013-03-04 10:22:00,
2013-03-04 04:32:00,46.0,38.0,-100.00,South,186,5.0,12.0,73,0.00,,,0.00,0.000000,,2013-03-04 10:32:00,
2013-03-04 04:52:00,46.0,38.0,-100.00,South,186,5.0,12.0,73,0.00,,,0.00,0.000000,,2013-03-04 10:52:00,
2013-03-04 05:02:00,46.0,38.0,-100.00,South,186,5.0,12.0,73,0.00,,,0.00,0.000000,,2013-03-04 11:02:00,
2013-03-04 05:11:00,46.0,38.0,-100.00,South,186,5.0,12.0,73,0.00,,,0.00,0.000000,,2013-03-04 11:11:00,
2013-03-04 05:22:00,46.0,38.0,-100.00,South,186,5.0,12.0,73,0.00,,,0.00,0.000000,,2013-03-04 11:22:00,
2013-03-04 05:32:00,45.0,39.0,-100.00,South,169,5.0,10.0,79,0.00,,,0.00,0.000000,,2013-03-04 11:32:00,
2013-03-04 05:52:00,45.0,39.0,-100.00,South,169,5.0,10.0,79,0.00,,,0.00,0.000000,,2013-03-04 11:52:00,
2013-03-04 06:01:00,45.0,39.0,-100.00,South,169,5.0,10.0,79,0.00,,,0.00,0.000000,,2013-03-04 12:01:00,
2013-03-04 06:11:00,45.0,39.0,-100.00,South,169,5.0,10.0,79,0.00,,,0.00,0.000000,,2013-03-04 12:11:00,
2013-03-04 06:22:00,45.0,39.0,-100.00,South,169,5.0,10.0,79,0.00,,,0.00,0.000000,,2013-03-04 12:22:00,
2013-03-04 06:32:00,46.0,41.0,-100.00,South,176,7.0,13.0,81,0.00,,,0.00,1.000000,,2013-03-04 12:32:00,
2013-03-04 06:53:00,46.0,41.0,-100.00,South,176,7.0,13.0,81,0.00,,,0.00,1.000000,,2013-03-04 12:53:00,
2013-03-04 07:02:00,46.0,41.0,-100.00,South,176,7.0,13.0,81,0.00,,,0.00,1.000000,,2013-03-04 13:02:00,
2013-03-04 07:11:00,46.0,41.0,-100.00,South,176,7.0,13.0,81,0.00,,,0.00,1.000000,,2013-03-04 13:11:00,
2013-03-04 07:21:00,46.0,41.0,-100.00,South,176,7.0,13.0,81,0.00,,,0.00,1.000000,,2013-03-04 13:21:00,
2013-03-04 07:32:00,51.0,44.0,-100.00,South,175,8.0,14.0,76,0.00,,,0.00,52.000000,,2013-03-04 13:32:00,
2013-03-04 07:52:00,51.0,44.0,-100.00,South,175,8.0,14.0,76,0.00,,,0.00,52.000000,,2013-03-04 13:52:00,
2013-03-04 08:01:00,51.0,44.0,-100.00,South,175,8.0,14.0,76,0.00,,,0.00,52.000000,,2013-03-04 14:01:00,
2013-03-04 08:11:00,51.0,44.0,-100.00,South,175,8.0,14.0,76,0.00,,,0.00,52.000000,,2013-03-04 14:11:00,
2013-03-04 08:22:00,51.0,44.0,-100.00,South,175,8.0,14.0,76,0.00,,,0.00,52.000000,,2013-03-04 14:22:00,
2013-03-04 08:32:00,56.0,46.0,-100.00,South,187,10.0,19.0,68,0.00,,,0.00,289.000000,,2013-03-04 14:32:00,
2013-03-04 08:52:00,56.0,46.0,-100.00,South,187,10.0,19.0,68,0.00,,,0.00,289.000000,,2013-03-04 14:52:00,
2013-03-04 09:01:00,56.0,46.0,-100.00,South,187,10.0,19.0,68,0.00,,,0.00,289.000000,,2013-03-04 15:01:00,
2013-03-04 09:11:00,56.0,46.0,-100.00,South,187,10.0,19.0,68,0.00,,,0.00,289.000000,,2013-03-04 15:11:00,
2013-03-04 09:22:00,56.0,46.0,-100.00,South,187,10.0,19.0,68,0.00,,,0.00,289.000000,,2013-03-04 15:22:00,
2013-03-04 09:32:00,62.0,48.0,-100.00,SSW,198,12.0,22.0,61,0.00,,,0.00,494.000000,,2013-03-04 15:32:00,
2013-03-04 09:52:00,62.0,48.0,-100.00,SSW,198,12.0,22.0,61,0.00,,,0.00,494.000000,,2013-03-04 15:52:00,
2013-03-04 10:02:00,62.0,48.0,-100.00,SSW,198,12.0,22.0,61,0.00,,,0.00,494.000000,,2013-03-04 16:02:00,
2013-03-04 10:11:00,62.0,48.0,-100.00,SSW,198,12.0,22.0,61,0.00,,,0.00,494.000000,,2013-03-04 16:11:00,
2013-03-04 10:21:00,62.0,48.0,-100.00,SSW,198,12.0,22.0,61,0.00,,,0.00,494.000000,,2013-03-04 16:21:00,
2013-03-04 10:32:00,66.0,49.0,-100.00,SSW,201,14.0,28.0,55,0.00,,,0.00,496.000000,,2013-03-04 16:32:00,
2013-03-04 10:52:00,66.0,49.0,-100.00,SSW,201,14.0,28.0,55,0.00,,,0.00,496.000000,,2013-03-04 16:52:00,
2013-03-04 11:02:00,66.0,49.0,-100.00,SSW,201,14.0,28.0,55,0.00,,,0.00,496.000000,,2013-03-04 17:02:00,
2013-03-04 11:11:00,66.0,49.0,-100.00,SSW,201,14.0,28.0,55,0.00,,,0.00,496.000000,,2013-03-04 17:11:00,
2013-03-04 11:22:00,66.0,49.0,-100.00,SSW,201,14.0,28.0,55,0.00,,,0.00,496.000000,,2013-03-04 17:22:00,
2013-03-04 11:32:00,68.0,49.0,-100.00,SSW,202,13.0,27.0,51,0.00,,,0.00,453.000000,,2013-03-04 17:32:00,
2013-03-04 11:52:00,68.0,49.0,-100.00,SSW,202,13.0,27.0,51,0.00,,,0.00,453.000000,,2013-03-04 17:52:00,
2013-03-04 12:01:00,68.0,49.0,-100.00,SSW,202,13.0,27.0,51,0.00,,,0.00,453.000000,,2013-03-04 18:01:00,
2013-03-04 12:11:00,68.0,49.0,-100.00,SSW,202,13.0,27.0,51,0.00,,,0.00,453.000000,,2013-03-04 18:11:00,
2013-03-04 12:22:00,68.0,49.0,-100.00,SSW,202,13.0,27.0,51,0.00,,,0.00,453.000000,,2013-03-04 18:22:00,
2013-03-04 12:32:00,72.0,50.0,-100.00,South,179,14.0,29.0,46,0.00,,,0.00,694.000000,,2013-03-04 18:32:00,
2013-03-04 12:52:00,72.0,50.0,-100.00,South,179,14.0,29.0,46,0.00,,,0.00,694.000000,,2013-03-04 18:52:00,
2013-03-04 13:02:00,72.0,50.0,-100.00,South,179,14.0,29.0,46,0.00,,,0.00,694.000000,,2013-03-04 19:02:00,
2013-03-04 13:11:00,72.0,50.0,-100.00,South,179,14.0,29.0,46,0.00,,,0.00,694.000000,,2013-03-04 19:11:00,
2013-03-04 13:22:00,72.0,50.0,-100.00,South,179,14.0,29.0,46,0.00,,,0.00,694.000000,,2013-03-04 19:22:00,
2013-03-04 13:32:00,74.0,49.0,-100.00,South,191,13.0,27.0,42,0.00,,,0.00,727.000000,,2013-03-04 19:32:00,
2013-03-04 13:52:00,74.0,49.0,-100.00,South,191,13.0,27.0,42,0.00,,,0.00,727.000000,,2013-03-04 19:52:00,
2013-03-04 14:02:00,74.0,49.0,-100.00,South,191,13.0,27.0,42,0.00,,,0.00,727.000000,,2013-03-04 20:02:00,
2013-03-04 14:11:00,74.0,49.0,-100.00,South,191,13.0,27.0,42,0.00,,,0.00,727.000000,,2013-03-04 20:11:00,
2013-03-04 14:22:00,74.0,49.0,-100.00,South,191,13.0,27.0,42,0.00,,,0.00,727.000000,,2013-03-04 20:22:00,
2013-03-04 14:32:00,74.0,50.0,-100.00,SSW,197,14.0,32.0,43,0.00,,,0.00,599.000000,,2013-03-04 20:32:00,
2013-03-04 14:53:00,74.0,50.0,-100.00,SSW,197,14.0,32.0,43,0.00,,,0.00,599.000000,,2013-03-04 20:53:00,
2013-03-04 15:02:00,74.0,50.0,-100.00,SSW,197,14.0,32.0,43,0.00,,,0.00,599.000000,,2013-03-04 21:02:00,
2013-03-04 15:12:00,74.0,50.0,-100.00,SSW,197,14.0,32.0,43,0.00,,,0.00,599.000000,,2013-03-04 21:12:00,
2013-03-04 15:22:00,74.0,50.0,-100.00,SSW,197,14.0,32.0,43,0.00,,,0.00,599.000000,,2013-03-04 21:22:00,
2013-03-04 15:32:00,71.0,49.0,-100.00,SSW,201,15.0,28.0,46,0.00,,,0.00,381.000000,,2013-03-04 21:32:00,
2013-03-04 15:53:00,71.0,49.0,-100.00,SSW,201,15.0,28.0,46,0.00,,,0.00,381.000000,,2013-03-04 21:53:00,
2013-03-04 16:02:00,71.0,49.0,-100.00,SSW,201,15.0,28.0,46,0.00,,,0.00,381.000000,,2013-03-04 22:02:00,
2013-03-04 16:12:00,71.0,49.0,-100.00,SSW,201,15.0,28.0,46,0.00,,,0.00,381.000000,,2013-03-04 22:12:00,
2013-03-04 16:22:00,71.0,49.0,-100.00,SSW,201,15.0,28.0,46,0.00,,,0.00,381.000000,,2013-03-04 22:22:00,
2013-03-04 16:32:00,70.0,50.0,-100.00,SSW,202,11.0,28.0,50,0.00,,,0.00,177.000000,,2013-03-04 22:32:00,
2013-03-04 16:52:00,70.0,50.0,-100.00,SSW,202,11.0,28.0,50,0.00,,,0.00,177.000000,,2013-03-04 22:52:00,
2013-03-04 17:02:00,70.0,50.0,-100.00,SSW,202,11.0,28.0,50,0.00,,,0.00,177.000000,,2013-03-04 23:02:00,
2013-03-04 17:11:00,70.0,50.0,-100.00,SSW,202,11.0,28.0,50,0.00,,,0.00,177.000000,,2013-03-04 23:11:00,
2013-03-04 17:22:00,70.0,50.0,-100.00,SSW,202,11.0,28.0,50,0.00,,,0.00,177.000000,,2013-03-04 23:22:00,
2013-03-04 17:32:00,69.0,52.0,-100.00,SSW,196,10.0,24.0,54,0.00,,,0.00,97.000000,,2013-03-04 23:32:00,
2013-03-04 17:52:00,69.0,52.0,-100.00,SSW,196,10.0,24.0,54,0.00,,,0.00,97.000000,,2013-03-04 23:52:00,
2013-03-04 18:02:00,69.0,52.0,-100.00,SSW,196,10.0,24.0,54,0.00,,,0.00,97.000000,,2013-03-05 00:02:00,
2013-03-04 18:12:00,69.0,52.0,-100.00,SSW,196,10.0,24.0,54,0.00,,,0.00,97.000000,,2013-03-05 00:12:00,
2013-03-04 18:21:00,69.0,52.0,-100.00,SSW,196,10.0,24.0,54,0.00,,,0.00,97.000000,,2013-03-05 00:21:00,
2013-03-04 18:32:00,68.0,53.0,-100.00,SSW,201,10.0,20.0,59,0.00,,,0.00,13.000000,,2013-03-05 00:32:00,
2013-03-04 18:52:00,68.0,53.0,-100.00,SSW,201,10.0,20.0,59,0.00,,,0.00,13.000000,,2013-03-05 00:52:00,
2013-03-04 19:01:00,68.0,53.0,-100.00,SSW,201,10.0,20.0,59,0.00,,,0.00,13.000000,,2013-03-05 01:01:00,
2013-03-04 19:12:00,68.0,53.0,-100.00,SSW,201,10.0,20.0,59,0.00,,,0.00,13.000000,,2013-03-05 01:12:00,
2013-03-04 19:22:00,68.0,53.0,-100.00,SSW,201,10.0,20.0,59,0.00,,,0.00,13.000000,,2013-03-05 01:22:00,
2013-03-04 19:32:00,67.0,54.0,-100.00,SSW,206,11.0,28.0,63,0.00,,,0.00,0.000000,,2013-03-05 01:32:00,
2013-03-04 19:52:00,67.0,54.0,-100.00,SSW,206,11.0,28.0,63,0.00,,,0.00,0.000000,,2013-03-05 01:52:00,
2013-03-04 20:01:00,67.0,54.0,-100.00,SSW,206,11.0,28.0,63,0.00,,,0.00,0.000000,,2013-03-05 02:01:00,
2013-03-04 20:11:00,67.0,54.0,-100.00,SSW,206,11.0,28.0,63,0.00,,,0.00,0.000000,,2013-03-05 02:11:00,
2013-03-04 20:22:00,67.0,54.0,-100.00,SSW,206,11.0,28.0,63,0.00,,,0.00,0.000000,,2013-03-05 02:22:00,
2013-03-04 20:32:00,66.0,55.0,-100.00,SSW,193,8.0,20.0,68,0.00,,,0.00,0.000000,,2013-03-05 02:32:00,
2013-03-04 20:52:00,66.0,55.0,-100.00,SSW,193,8.0,20.0,68,0.00,,,0.00,0.000000,,2013-03-05 02:52:00,
2013-03-04 21:02:00,66.0,55.0,-100.00,SSW,193,8.0,20.0,68,0.00,,,0.00,0.000000,,2013-03-05 03:02:00,
2013-03-04 21:12:00,66.0,55.0,-100.00,SSW,193,8.0,20.0,68,0.00,,,0.00,0.000000,,2013-03-05 03:12:00,
2013-03-04 21:22:00,66.0,55.0,-100.00,SSW,193,8.0,20.0,68,0.00,,,0.00,0.000000,,2013-03-05 03:22:00,
2013-03-04 21:32:00,65.0,55.0,-100.00,SSW,198,9.0,21.0,71,0.00,,,0.00,0.000000,,2013-03-05 03:32:00,
2013-03-04 21:52:00,65.0,55.0,-100.00,SSW,198,9.0,21.0,71,0.00,,,0.00,0.000000,,2013-03-05 03:52:00,
2013-03-04 22:02:00,65.0,55.0,-100.00,SSW,198,9.0,21.0,71,0.00,,,0.00,0.000000,,2013-03-05 04:02:00,
2013-03-04 22:12:00,65.0,55.0,-100.00,SSW,198,9.0,21.0,71,0.00,,,0.00,0.000000,,2013-03-05 04:12:00,
2013-03-04 22:22:00,65.0,55.0,-100.00,SSW,198,9.0,21.0,71,0.00,,,0.00,0.000000,,2013-03-05 04:22:00,
2013-03-04 22:32:00,65.0,56.0,-100.00,SSW,199,9.0,24.0,72,0.00,,,0.00,0.000000,,2013-03-05 04:32:00,
2013-03-04 22:52:00,65.0,56.0,-100.00,SSW,199,9.0,24.0,72,0.00,,,0.00,0.000000,,2013-03-05 04:52:00,
2013-03-04 23:02:00,65.0,56.0,-100.00,SSW,199,9.0,24.0,72,0.00,,,0.00,0.000000,,2013-03-05 05:02:00,
2013-03-04 23:12:00,65.0,56.0,-100.00,SSW,199,9.0,24.0,72,0.00,,,0.00,0.000000,,2013-03-05 05:12:00,
2013-03-04 23:22:00,65.0,56.0,-100.00,SSW,199,9.0,24.0,72,0.00,,,0.00,0.000000,,2013-03-05 05:22:00,
2013-03-04 23:32:00,65.0,56.0,-100.00,SSW,208,7.0,18.0,73,0.00,,,0.00,0.000000,,2013-03-05 05:32:00,
2013-03-04 23:52:00,65.0,56.0,-100.00,SSW,208,7.0,18.0,73,0.00,,,0.00,0.000000,,2013-03-05 05:52:00,